This is the latest recevied weather packets stored in our database for station/object APPOWX. If no packets are shown the sender has not sent any weather packets the latest 10 day(s).
| Time | Temp. | Humidity | Pressure | Rain* | Wind** | Luminosity | Snow |
|---|---|---|---|---|---|---|---|
| 1778367887 | 21.67° C | 57% | 1011.6 hPa | 0 mm | - | - | - |
| 1778367826 | 21.67° C | 57% | 1011.7 hPa | 0 mm | - | - | - |
| 1778367766 | 21.67° C | 57% | 1011.6 hPa | 0 mm | - | - | - |
| 1778367707 | 21.67° C | 58% | 1011.8 hPa | 0 mm | - | - | - |
| 1778367646 | 21.67° C | 58% | 1011.5 hPa | 0 mm | - | - | - |
| 1778367586 | 21.67° C | 59% | 1011.6 hPa | 0 mm | - | - | - |
| 1778367526 | 22.22° C | 58% | 1011.7 hPa | 0 mm | - | - | - |
| 1778367466 | 22.22° C | 57% | 1011.7 hPa | 0 mm | - | - | - |
| 1778367405 | 21.67° C | 57% | 1011.7 hPa | 0 mm | - | - | - |
| 1778367346 | 22.22° C | 57% | 1011.7 hPa | 0 mm | - | - | - |
| 1778367286 | 22.22° C | 57% | 1011.8 hPa | 0 mm | - | - | - |
| 1778367225 | 22.22° C | 61% | 1011.7 hPa | 0 mm | - | - | - |
| 1778367166 | 22.22° C | 58% | 1011.5 hPa | 0 mm | - | - | - |
| 1778367105 | 22.22° C | 57% | 1011.6 hPa | 0 mm | - | - | - |
| 1778367045 | 22.22° C | 58% | 1011.5 hPa | 0 mm | - | - | - |
| 1778366985 | 22.22° C | 58% | 1011.4 hPa | 0 mm | - | - | - |
| 1778366925 | 22.22° C | 56% | 1011.5 hPa | 0 mm | - | - | - |
| 1778366864 | 22.22° C | 58% | 1011.7 hPa | 0 mm | - | - | - |
| 1778366805 | 22.22° C | 57% | 1011.5 hPa | 0 mm | - | - | - |
| 1778366745 | 22.22° C | 57% | 1011.6 hPa | 0 mm | - | - | - |
| 1778366684 | 22.22° C | 58% | 1011.6 hPa | 0 mm | - | - | - |
| 1778366620 | 22.22° C | 57% | 1011.5 hPa | 0 mm | - | - | - |
| 1778366556 | 22.22° C | 60% | 1011.6 hPa | 0 mm | - | - | - |
| 1778366492 | 22.22° C | 59% | 1011.6 hPa | 0 mm | - | - | - |
| 1778366431 | 21.67° C | 58% | 1011.8 hPa | 0 mm | - | - | - |
* Rain latest hour (hover to see other rain measurements)
** Current wind speed in m/s (hover to see current wind gust speed)